Terminal Aerodrome Forecast
Issued by NWS Omaha/Valley, NE

Home | Current Version | Previous Version | Text Only | Print | Product List | Glossary On
Versions: 1 2 3 4 5 6 7 8 9 10 11 12 13 14 15 16 17 18 19 20 21 22 23 24 25 26 27 28 29 30 31 32 33 34 35 36 37
000
FTUS43 KOAX 292324
TAFLNK
TAF
KLNK 292324Z 3000/3024 11004KT P6SM BKN200
     FM300200 15003KT P6SM SCT200
      TEMPO 3009/3013 4SM BR
     FM301400 18008KT P6SM SCT015=

USA.gov is the U.S. government's official web portal to all federal, state and local government web resources and services.